Location: Baia Mare
(47.6567°N, 23.5850°E)
Time: 14:35:51
(UTC+03:00)

ISS - Pass Details

Date: 04 July 2019
Orbit: 409 x 418 km, 51.6° (Epoch: 21 July)

Event Time Altitude Azimuth Distance (km) Brightness Sun altitude
Exits shadow 04:21:25 14° 218° (SW) 1,236 -2.1 -9.6°
Maximum altitude 04:23:59 45° 148° (SSE) 569 -3.2 -9.3°
Drops below altitude 10° 04:27:10 10° 74° (ENE) 1,477 0.0 -9.0°
Sets 04:29:18 0° 68° (ENE) 2,341 1.3 -8.8°
